weather.gov     
National Weather Service

Regional Weather Roundup
NWS Homepage
This page is being discontinued on March 12, 2014.
The same data is available at this site. Please update your bookmarks.
Thank you, and we apologize for the inconvenience.
Please send an email to SR-SRH.Webmaster@noaa.gov with any concerns.


Current Version
Previous Version:    01  02  03  04  05  06  07  08  09  10  11  12  13  14  15  16  17  18  19  20  21  22  23  24  25  26  27  28  29  30  
   31  32  33  34  35  36  37  38  39  40  41  42  43  44  45  46  47  48  49  50  51  52  53  54  
[Printable]
210
ASUS43 KFSD 021010
RWRSD

WEATHER ROUNDUP FOR SOUTH DAKOTA
NATIONAL WEATHER SERVICE SIOUX FALLS SD
500 AM CDT TUE SEP 02 2014

NOTE: "FAIR" INDICATES FEW OR NO CLOUDS BELOW 12,000 FEET WITH NO
SIGNIFICANT WEATHER AND/OR OBSTRUCTIONS TO VISIBILITY.


SDZ001>005-009-010-012>017-021100-
NORTHWEST AND NORTH CENTRAL SOUTH DAKOTA

CITY           SKY/WX    TMP DP  RH WIND       PRES   REMARKS
BUFFALO          N/A     50  43  77 W9        29.85F
FAITH            N/A     50  46  86 S12       29.92S
MOBRIDGE       CLEAR     48  47  96 CALM      29.87F
$$

SDZ012>016-024>037-041>051-057-063-072>074-021100-
SOUTHWEST AND SOUTH CENTRAL SOUTH DAKOTA

CITY           SKY/WX    TMP DP  RH WIND       PRES   REMARKS
RAPID CTY ARPT CLEAR     47  41  80 W3        29.98F
PIERRE         CLEAR     54  51  90 SW12      29.91S
CUSTER         CLEAR     44  39  82 W6        30.08S
ELLSWORTH AFB  CLEAR     48  42  79 SW7       29.98R
PHILIP         CLEAR     51  48  89 W7        29.96S
PINE RIDGE     CLEAR     39  38  96 MISG      30.02F
WINNER         FAIR      54  49  83 SW8       29.96S
$$

SDZ004>011-016>023-039-040-021100-
NORTHEAST SOUTH DAKOTA

CITY           SKY/WX    TMP DP  RH WIND       PRES   REMARKS
ABERDEEN       CLEAR     48  48 100 SW3       29.88S
WATERTOWN      CLEAR     50  48  93 SW3       29.89S
SISSETON         N/A     55  53  93 W3        29.84F
$$

SDZ017-020-022-023-036>040-048>070-021100-
SOUTHEAST SOUTH DAKOTA

CITY           SKY/WX    TMP DP  RH WIND       PRES   REMARKS
SIOUX FALLS    CLEAR     57  54  89 CALM      29.93R
HURON          CLEAR     53  52  96 S3        29.90F
CHAMBERLAIN    CLEAR     53  51  94 SW6       29.94S
MITCHELL       CLEAR     57  55  93 W8        29.92S
YANKTON        CLEAR     57  55  94 W6        29.94S
$$

ABBREVIATIONS USED IN REMARKS
   TC - TEMPERATURE IN CELSIUS
  WCI - WIND CHILL INDEX
   HX - HEAT INDEX
  VSB - VISIBILITY





U.S. Dept. of Commerce
NOAA National Weather Service
1325 East West Highway
Silver Spring, MD 20910
E-mail: w-nws.webmaster@noaa.gov
Page last modified: May 16, 2007
NATIONAL WEATHER SERVICE: for Safety, for Work, for Fun - FOR LIFE